QPF
0.00 0.00 0.00 0.00 0.00 0.00 0.00 0.00 0.00 0.00 0.00 0.00 0.00 0.00 0.00 0.00 0.01 0.01 0.01 0.01 0.01 0.01 0.01 0.01 0.01 0.02 0.02 0.03 0.04 0.05 0.05 0.06 0.08 0.08 0.08 0.10 0.11 0.09 0.08 0.08 0.09 0.10 0.08
0.00 0.00 0.00 0.00 0.00 0.00 0.00 0.00 0.00 0.00 0.00 0.00 0.00 0.00 0.00 0.00 0.00 0.01 0.00 0.01 0.01 0.01 0.01 0.01 0.01 0.02 0.02 0.02 0.03 0.04 0.05 0.05 0.07 0.08 0.08 0.09 0.12 0.13 0.11 0.10 0.09 0.09 0.08
0.00 0.00 0.00 0.00 0.00 0.00 0.00 0.00 0.00 0.00 0.00 0.00 0.00 0.00 0.00 0.00 0.00 0.01 0.01 0.01 0.01 0.01 0.01 0.01 0.01 0.02 0.02 0.02 0.03 0.03 0.04 0.06 0.07 0.08 0.08 0.09 0.11 0.14 0.15 0.13 0.11 0.10 0.07
0.00 0.00 0.00 0.00 0.00 0.00 0.00 0.00 0.00 0.00 0.00 0.00 0.00 0.00 0.01 0.01 0.01 0.01 0.01 0.01 0.01 0.01 0.01 0.01 0.01 0.02 0.02 0.03 0.03 0.03 0.04 0.07 0.09 0.09 0.09 0.09 0.11 0.13 0.16 0.16 0.14 0.12 0.10
0.00 0.00 0.00 0.00 0.00 0.00 0.00 0.00 0.00 0.00 0.00 0.00 0.00 0.01 0.01 0.01 0.00 0.01 0.01 0.01 0.01 0.01 0.02 0.02 0.02 0.01 0.01 0.02 0.02 0.02 0.03 0.05 0.07 0.09 0.10 0.11 0.13 0.14 0.13 0.15 0.15 0.14 0.13
0.00 0.00 0.00 0.00 0.00 0.00 0.00 0.00 0.00 0.00 0.00 0.00 0.00 0.00 0.00 0.00 0.00 0.00 0.01 0.01 0.01 0.01 0.02 0.02 0.02 0.01 0.01 0.01 0.00 0.01 0.02 0.04 0.06 0.08 0.08 0.10 0.14 0.16 0.14 0.13 0.15 0.15 0.14
0.00 0.00 0.00 0.00 0.00 0.00 0.00 0.00 0.00 0.00 0.00 0.00 0.00 0.00 0.00 0.01 0.00 0.00 0.00 0.01 0.01 0.01 0.02 0.02 0.02 0.01 0.01 0.01 0.01 0.01 0.01 0.01 0.02 0.06 0.07 0.07 0.10 0.16 0.17 0.14 0.13 0.16 0.15
0.00 0.00 0.00 0.00 0.00 0.00 0.00 0.00 0.00 0.01 0.01 0.01 0.01 0.01 0.01 0.01 0.00 0.00 0.00 0.00 0.01 0.02 0.02 0.03 0.03 0.03 0.03 0.03 0.03 0.03 0.03 0.02 0.01 0.02 0.04 0.06 0.07 0.13 0.18 0.18 0.17 0.18 0.17
0.00 0.00 0.00 0.00 0.00 0.00 0.00 0.00 0.00 0.01 0.01 0.01 0.01 0.01 0.01 0.01 0.00 0.00 0.00 0.01 0.02 0.02 0.02 0.03 0.03 0.04 0.03 0.01 0.03 0.04 0.04 0.05 0.02 0.01 0.02 0.04 0.05 0.07 0.13 0.18 0.21 0.22 0.20
0.00 0.00 0.00 0.00 0.00 0.00 0.00 0.00 0.00 0.01 0.01 0.01 0.01 0.01 0.01 0.01 0.01 0.01 0.01 0.02 0.02 0.03 0.03 0.04 0.02 0.02 0.02 0.01 0.02 0.04 0.05 0.05 0.05 0.04 0.03 0.02 0.03 0.04 0.06 0.10 0.16 0.20 0.21
0.00 0.00 0.00 0.00 0.00 0.00 0.00 0.00 0.01 0.01 0.01 0.01 0.01 0.01 0.02 0.01 0.01 0.01 0.01 0.01 0.02 0.03 0.04 0.04 0.04 0.01 0.00 0.00 0.01 0.04 0.05 0.06 0.09 0.10 0.08 0.06 0.05 0.05 0.06 0.07 0.11 0.17 0.19
0.00 0.00 0.00 0.00 0.00 0.00 0.00 0.00 0.01 0.01 0.01 0.01 0.01 0.01 0.01 0.01 0.01 0.00 0.00 0.01 0.02 0.03 0.04 0.04 0.04 0.01 0.01 0.01 0.01 0.02 0.02 0.03 0.07 0.09 0.09 0.07 0.06 0.05 0.05 0.07 0.11 0.16 0.18
0.00 0.00 0.00 0.00 0.00 0.00 0.00 0.00 0.01 0.01 0.01 0.01 0.01 0.01 0.01 0.01 0.02 0.01 0.01 0.01 0.01 0.02 0.03 0.03 0.03 0.02 0.02 0.02 0.02 0.02 0.02 0.05 0.08 0.09 0.08 0.07 0.07 0.06 0.06 0.08 0.11 0.17 0.20
0.00 0.00 0.00 0.00 0.00 0.00 0.01 0.01 0.01 0.01 0.01 0.01 0.01 0.01 0.01 0.01 0.02 0.03 0.02 0.02 0.03 0.03 0.04 0.04 0.03 0.03 0.04 0.05 0.04 0.04 0.05 0.07 0.09 0.10 0.10 0.08 0.08 0.10 0.08 0.08 0.09 0.14 0.20
0.00 0.00 0.00 0.00 0.00 0.00 0.00 0.01 0.00 0.00 0.01 0.01 0.01 0.01 0.01 0.02 0.02 0.01 0.01 0.02 0.03 0.05 0.05 0.06 0.07 0.06 0.07 0.09 0.08 0.07 0.07 0.07 0.07 0.09 0.11 0.10 0.09 0.10 0.10 0.10 0.10 0.11 0.15
0.00 0.00 0.00 0.00 0.00 0.00 0.00 0.00 0.00 0.00 0.00 0.00 0.00 0.01 0.01 0.01 0.01 0.01 0.01 0.01 0.02 0.03 0.05 0.07 0.08 0.09 0.10 0.11 0.10 0.09 0.08 0.08 0.08 0.10 0.11 0.10 0.10 0.09 0.09 0.10 0.12 0.12 0.13
0.00 0.00 0.00 0.00 0.00 0.00 0.00 0.01 0.01 0.01 0.00 0.00 0.00 0.01 0.01 0.01 0.01 0.01 0.01 0.01 0.01 0.02 0.04 0.07 0.08 0.08 0.10 0.11 0.10 0.09 0.09 0.10 0.10 0.11 0.11 0.11 0.10 0.09 0.09 0.08 0.10 0.13 0.14
0.00 0.00 0.00 0.00 0.00 0.00 0.01 0.01 0.01 0.01 0.01 0.01 0.01 0.01 0.01 0.01 0.01 0.01 0.01 0.01 0.02 0.02 0.04 0.06 0.07 0.08 0.10 0.12 0.12 0.11 0.12 0.12 0.11 0.11 0.10 0.10 0.10 0.09 0.08 0.07 0.08 0.11 0.14
0.00 0.00 0.00 0.00 0.00 0.01 0.01 0.01 0.01 0.01 0.02 0.02 0.02 0.02 0.01 0.00 0.01 0.01 0.01 0.02 0.03 0.04 0.05 0.06 0.07 0.08 0.10 0.12 0.13 0.12 0.13 0.13 0.13 0.12 0.11 0.09 0.09 0.09 0.08 0.07 0.08 0.10 0.15
0.00 0.00 0.00 0.00 0.01 0.01 0.01 0.01 0.01 0.01 0.02 0.02 0.03 0.03 0.01 0.01 0.02 0.03 0.03 0.04 0.04 0.05 0.05 0.06 0.06 0.07 0.09 0.11 0.12 0.11 0.11 0.12 0.11 0.11 0.12 0.11 0.10 0.09 0.08 0.08 0.09 0.10 0.12
0.00 0.00 0.00 0.01 0.00 0.00 0.00 0.01 0.01 0.01 0.02 0.02 0.03 0.02 0.01 0.01 0.03 0.04 0.03 0.03 0.04 0.05 0.05 0.06 0.07 0.07 0.08 0.08 0.09 0.10 0.10 0.11 0.10 0.09 0.10 0.11 0.11 0.10 0.09 0.10 0.11 0.11 0.13
0.00 0.00 0.00 0.00 0.00 0.00 0.00 0.01 0.01 0.01 0.02 0.02 0.02 0.02 0.02 0.02 0.03 0.05 0.05 0.04 0.03 0.03 0.04 0.04 0.06 0.06 0.07 0.07 0.09 0.09 0.10 0.10 0.10 0.09 0.09 0.09 0.10 0.10 0.10 0.11 0.11 0.11 0.13
0.00 0.00 0.00 0.00 0.00 0.01 0.01 0.01 0.01 0.01 0.02 0.02 0.02 0.03 0.03 0.03 0.03 0.03 0.04 0.04 0.04 0.05 0.05 0.04 0.04 0.05 0.05 0.06 0.08 0.09 0.10 0.10 0.09 0.08 0.08 0.07 0.08 0.09 0.09 0.10 0.09 0.09 0.11
0.00 0.00 0.00 0.00 0.00 0.01 0.01 0.01 0.01 0.01 0.02 0.02 0.03 0.03 0.03 0.03 0.03 0.02 0.02 0.04 0.05 0.05 0.06 0.06 0.06 0.05 0.05 0.05 0.06 0.06 0.07 0.06 0.05 0.06 0.06 0.07 0.08 0.08 0.09 0.11 0.10 0.09 0.12
0.00 0.00 0.00 0.00 0.01 0.01 0.01 0.01 0.01 0.02 0.02 0.02 0.03 0.03 0.03 0.03 0.04 0.04 0.03 0.04 0.04 0.05 0.04 0.04 0.05 0.05 0.05 0.05 0.05 0.04 0.03 0.03 0.03 0.04 0.06 0.07 0.07 0.08 0.08 0.09 0.11 0.11 0.11
0.00 0.00 0.00 0.00 0.01 0.01 0.01 0.02 0.02 0.02 0.01 0.01 0.01 0.02 0.03 0.03 0.04 0.04 0.04 0.04 0.05 0.05 0.04 0.03 0.03 0.03 0.03 0.04 0.03 0.02 0.01 0.01 0.01 0.03 0.05 0.07 0.09 0.10 0.09 0.09 0.10 0.11 0.10
MSLP
1016.54 1016.52 1016.48 1016.39 1016.24 1016.04 1015.79 1015.52 1015.23 1014.96 1014.71 1014.49 1014.29 1014.10 1013.91 1013.69 1013.46 1013.20 1012.92 1012.64 1012.38 1012.14 1011.95 1011.81 1011.71 1011.64 1011.59 1011.55 1011.50 1011.42 1011.29 1011.12 1010.90 1010.64 1010.34 1010.02 1009.70 1009.39 1009.13 1008.94 1008.84 1008.86 1009.01
1016.35 1016.30 1016.23 1016.11 1015.95 1015.74 1015.48 1015.20 1014.91 1014.63 1014.37 1014.14 1013.92 1013.72 1013.52 1013.30 1013.06 1012.79 1012.52 1012.23 1011.95 1011.70 1011.48 1011.31 1011.19 1011.10 1011.04 1011.00 1010.96 1010.91 1010.83 1010.72 1010.56 1010.36 1010.12 1009.85 1009.57 1009.28 1009.02 1008.82 1008.69 1008.66 1008.76
1016.16 1016.09 1015.99 1015.85 1015.67 1015.45 1015.19 1014.90 1014.61 1014.33 1014.07 1013.83 1013.60 1013.39 1013.17 1012.94 1012.69 1012.42 1012.13 1011.83 1011.54 1011.27 1011.03 1010.84 1010.69 1010.58 1010.51 1010.46 1010.43 1010.40 1010.35 1010.29 1010.18 1010.04 1009.87 1009.66 1009.42 1009.18 1008.96 1008.77 1008.65 1008.62 1008.71
1015.97 1015.88 1015.75 1015.60 1015.40 1015.17 1014.90 1014.62 1014.34 1014.06 1013.80 1013.56 1013.32 1013.10 1012.86 1012.62 1012.35 1012.06 1011.75 1011.44 1011.13 1010.85 1010.60 1010.38 1010.22 1010.10 1010.01 1009.96 1009.93 1009.91 1009.89 1009.85 1009.79 1009.70 1009.57 1009.42 1009.25 1009.07 1008.90 1008.77 1008.69 1008.70 1008.80
1015.78 1015.66 1015.51 1015.33 1015.12 1014.88 1014.61 1014.34 1014.06 1013.80 1013.54 1013.30 1013.06 1012.82 1012.57 1012.30 1012.01 1011.70 1011.37 1011.04 1010.73 1010.43 1010.17 1009.95 1009.78 1009.65 1009.56 1009.51 1009.48 1009.46 1009.45 1009.42 1009.39 1009.33 1009.25 1009.15 1009.04 1008.92 1008.82 1008.76 1008.75 1008.81 1008.97
1015.56 1015.42 1015.25 1015.05 1014.82 1014.56 1014.29 1014.02 1013.76 1013.50 1013.25 1013.02 1012.78 1012.53 1012.26 1011.97 1011.65 1011.32 1010.97 1010.63 1010.30 1010.00 1009.74 1009.52 1009.36 1009.23 1009.15 1009.10 1009.06 1009.04 1009.03 1009.01 1008.99 1008.95 1008.90 1008.84 1008.78 1008.73 1008.70 1008.71 1008.78 1008.91 1009.13
1015.32 1015.16 1014.96 1014.73 1014.48 1014.20 1013.93 1013.66 1013.40 1013.15 1012.92 1012.68 1012.44 1012.18 1011.90 1011.59 1011.25 1010.90 1010.54 1010.18 1009.85 1009.55 1009.30 1009.10 1008.94 1008.83 1008.75 1008.70 1008.67 1008.65 1008.63 1008.61 1008.59 1008.56 1008.53 1008.51 1008.50 1008.50 1008.54 1008.62 1008.75 1008.95 1009.23
1015.06 1014.88 1014.65 1014.39 1014.11 1013.81 1013.52 1013.24 1012.98 1012.74 1012.51 1012.28 1012.04 1011.78 1011.49 1011.17 1010.82 1010.45 1010.08 1009.72 1009.40 1009.11 1008.87 1008.68 1008.54 1008.44 1008.37 1008.32 1008.29 1008.26 1008.24 1008.22 1008.20 1008.18 1008.17 1008.18 1008.20 1008.26 1008.34 1008.48 1008.67 1008.92 1009.25
1014.81 1014.60 1014.34 1014.04 1013.72 1013.40 1013.08 1012.79 1012.52 1012.28 1012.05 1011.82 1011.59 1011.33 1011.04 1010.72 1010.37 1010.00 1009.63 1009.28 1008.96 1008.69 1008.46 1008.28 1008.15 1008.05 1007.98 1007.94 1007.90 1007.87 1007.84 1007.82 1007.81 1007.81 1007.82 1007.86 1007.92 1008.02 1008.15 1008.33 1008.56 1008.85 1009.20
1014.55 1014.32 1014.03 1013.69 1013.34 1012.98 1012.64 1012.32 1012.04 1011.79 1011.56 1011.34 1011.11 1010.86 1010.59 1010.28 1009.94 1009.59 1009.24 1008.90 1008.59 1008.32 1008.10 1007.92 1007.78 1007.68 1007.60 1007.54 1007.50 1007.46 1007.44 1007.42 1007.43 1007.45 1007.50 1007.58 1007.68 1007.82 1008.00 1008.21 1008.46 1008.76 1009.12
1014.30 1014.04 1013.72 1013.36 1012.97 1012.58 1012.20 1011.87 1011.57 1011.31 1011.08 1010.86 1010.65 1010.42 1010.17 1009.89 1009.58 1009.26 1008.93 1008.61 1008.31 1008.04 1007.81 1007.62 1007.46 1007.33 1007.23 1007.14 1007.08 1007.03 1007.01 1007.01 1007.04 1007.10 1007.20 1007.32 1007.48 1007.67 1007.88 1008.12 1008.39 1008.69 1009.03
1014.02 1013.75 1013.41 1013.02 1012.61 1012.19 1011.79 1011.43 1011.12 1010.85 1010.62 1010.42 1010.23 1010.03 1009.82 1009.58 1009.31 1009.03 1008.73 1008.43 1008.14 1007.86 1007.61 1007.39 1007.19 1007.01 1006.86 1006.74 1006.65 1006.58 1006.56 1006.58 1006.64 1006.75 1006.90 1007.09 1007.31 1007.55 1007.80 1008.06 1008.34 1008.63 1008.95
1013.71 1013.44 1013.09 1012.68 1012.25 1011.81 1011.40 1011.02 1010.70 1010.43 1010.21 1010.03 1009.87 1009.71 1009.54 1009.35 1009.13 1008.89 1008.63 1008.35 1008.06 1007.78 1007.49 1007.22 1006.97 1006.73 1006.52 1006.35 1006.21 1006.12 1006.09 1006.12 1006.22 1006.38 1006.59 1006.84 1007.13 1007.42 1007.72 1008.01 1008.29 1008.58 1008.87
1013.37 1013.09 1012.74 1012.33 1011.89 1011.44 1011.02 1010.64 1010.32 1010.05 1009.85 1009.68 1009.56 1009.44 1009.32 1009.18 1009.01 1008.82 1008.59 1008.33 1008.05 1007.75 1007.43 1007.11 1006.79 1006.49 1006.21 1005.97 1005.78 1005.66 1005.62 1005.66 1005.78 1005.98 1006.25 1006.56 1006.90 1007.25 1007.59 1007.91 1008.20 1008.48 1008.76
1012.99 1012.72 1012.37 1011.96 1011.52 1011.08 1010.65 1010.28 1009.96 1009.70 1009.51 1009.37 1009.28 1009.20 1009.12 1009.03 1008.91 1008.76 1008.56 1008.32 1008.04 1007.73 1007.38 1007.01 1006.64 1006.27 1005.92 1005.62 1005.39 1005.23 1005.17 1005.20 1005.34 1005.56 1005.87 1006.22 1006.61 1006.99 1007.36 1007.70 1008.02 1008.30 1008.56
1012.59 1012.32 1011.98 1011.58 1011.15 1010.71 1010.30 1009.93 1009.62 1009.38 1009.20 1009.08 1009.00 1008.95 1008.90 1008.85 1008.77 1008.64 1008.48 1008.26 1007.98 1007.66 1007.29 1006.90 1006.48 1006.06 1005.67 1005.32 1005.04 1004.85 1004.76 1004.78 1004.91 1005.14 1005.45 1005.82 1006.22 1006.62 1007.01 1007.37 1007.69 1007.98 1008.25
1012.19 1011.93 1011.60 1011.21 1010.79 1010.37 1009.97 1009.61 1009.31 1009.07 1008.90 1008.78 1008.71 1008.67 1008.63 1008.59 1008.53 1008.43 1008.28 1008.08 1007.82 1007.50 1007.14 1006.73 1006.30 1005.87 1005.45 1005.07 1004.76 1004.54 1004.42 1004.41 1004.51 1004.72 1005.01 1005.37 1005.75 1006.15 1006.54 1006.89 1007.22 1007.52 1007.80
1011.81 1011.55 1011.22 1010.85 1010.45 1010.05 1009.66 1009.31 1009.02 1008.78 1008.60 1008.47 1008.39 1008.33 1008.29 1008.24 1008.18 1008.08 1007.94 1007.76 1007.52 1007.23 1006.88 1006.50 1006.09 1005.66 1005.25 1004.87 1004.55 1004.31 1004.17 1004.13 1004.19 1004.35 1004.59 1004.90 1005.24 1005.60 1005.96 1006.30 1006.63 1006.93 1007.23
1011.43 1011.18 1010.87 1010.52 1010.14 1009.76 1009.39 1009.05 1008.76 1008.51 1008.31 1008.15 1008.04 1007.94 1007.87 1007.79 1007.71 1007.60 1007.47 1007.30 1007.08 1006.83 1006.52 1006.19 1005.82 1005.44 1005.07 1004.72 1004.41 1004.17 1004.01 1003.93 1003.94 1004.04 1004.22 1004.45 1004.73 1005.03 1005.34 1005.64 1005.95 1006.26 1006.57
1011.05 1010.81 1010.53 1010.20 1009.85 1009.49 1009.14 1008.82 1008.52 1008.25 1008.02 1007.83 1007.66 1007.52 1007.39 1007.27 1007.15 1007.02 1006.88 1006.72 1006.54 1006.32 1006.08 1005.81 1005.51 1005.20 1004.89 1004.59 1004.32 1004.09 1003.92 1003.81 1003.77 1003.80 1003.89 1004.04 1004.24 1004.46 1004.71 1004.97 1005.25 1005.55 1005.87
1010.63 1010.42 1010.16 1009.87 1009.56 1009.23 1008.91 1008.59 1008.29 1008.01 1007.75 1007.51 1007.28 1007.08 1006.89 1006.71 1006.55 1006.39 1006.24 1006.09 1005.93 1005.76 1005.58 1005.38 1005.17 1004.94 1004.70 1004.46 1004.23 1004.03 1003.86 1003.72 1003.64 1003.61 1003.63 1003.69 1003.80 1003.95 1004.13 1004.34 1004.59 1004.86 1005.18
1010.12 1009.96 1009.75 1009.50 1009.24 1008.96 1008.66 1008.37 1008.07 1007.77 1007.48 1007.20 1006.92 1006.66 1006.42 1006.19 1005.98 1005.79 1005.62 1005.47 1005.33 1005.20 1005.07 1004.94 1004.80 1004.65 1004.48 1004.31 1004.13 1003.95 1003.78 1003.64 1003.52 1003.44 1003.40 1003.39 1003.43 1003.51 1003.63 1003.79 1003.99 1004.24 1004.54
1009.51 1009.40 1009.25 1009.07 1008.86 1008.63 1008.37 1008.10 1007.82 1007.52 1007.22 1006.91 1006.60 1006.30 1006.01 1005.74 1005.50 1005.28 1005.09 1004.94 1004.81 1004.70 1004.61 1004.52 1004.43 1004.34 1004.22 1004.10 1003.96 1003.81 1003.66 1003.51 1003.38 1003.27 1003.18 1003.13 1003.11 1003.14 1003.21 1003.33 1003.50 1003.71 1003.99
1008.79 1008.74 1008.66 1008.54 1008.39 1008.22 1008.02 1007.79 1007.53 1007.25 1006.96 1006.65 1006.34 1006.02 1005.71 1005.42 1005.15 1004.92 1004.72 1004.55 1004.42 1004.32 1004.23 1004.16 1004.10 1004.03 1003.94 1003.84 1003.73 1003.60 1003.46 1003.31 1003.18 1003.05 1002.95 1002.87 1002.84 1002.84 1002.88 1002.97 1003.11 1003.29 1003.53
1007.98 1007.99 1007.97 1007.93 1007.85 1007.73 1007.59 1007.41 1007.20 1006.97 1006.70 1006.42 1006.13 1005.83 1005.53 1005.24 1004.98 1004.73 1004.52 1004.34 1004.20 1004.08 1003.98 1003.90 1003.83 1003.75 1003.66 1003.56 1003.45 1003.32 1003.18 1003.05 1002.91 1002.79 1002.69 1002.62 1002.58 1002.58 1002.62 1002.69 1002.81 1002.97 1003.17
1007.12 1007.19 1007.23 1007.25 1007.23 1007.18 1007.10 1006.98 1006.84 1006.66 1006.46 1006.23 1005.99 1005.73 1005.47 1005.22 1004.97 1004.74 1004.53 1004.34 1004.17 1004.02 1003.88 1003.76 1003.64 1003.53 1003.41 1003.28 1003.15 1003.01 1002.87 1002.74 1002.61 1002.50 1002.42 1002.37 1002.35 1002.36 1002.40 1002.48 1002.59 1002.73 1002.90
Thickness
5666 5661 5656 5652 5647 5642 5638 5634 5629 5625 5622 5619 5616 5614 5612 5611 5610 5609 5609 5610 5610 5612 5614 5617 5619 5621 5626 5630 5634 5637 5641 5644 5648 5656 5663 5668 5671 5677 5683 5689 5693 5698 5701
5663 5657 5652 5647 5642 5637 5633 5628 5623 5619 5615 5612 5609 5606 5604 5603 5601 5599 5599 5601 5601 5603 5605 5608 5610 5614 5616 5619 5623 5628 5633 5637 5640 5644 5651 5657 5661 5668 5673 5679 5686 5692 5696
5660 5654 5649 5643 5637 5631 5627 5622 5617 5612 5609 5605 5602 5599 5597 5594 5593 5591 5591 5591 5592 5594 5596 5599 5602 5604 5606 5610 5613 5618 5623 5628 5632 5636 5642 5648 5653 5659 5664 5671 5677 5683 5689
5655 5650 5644 5638 5632 5626 5621 5616 5611 5607 5602 5599 5595 5592 5590 5588 5586 5584 5583 5583 5584 5586 5588 5590 5593 5595 5598 5601 5604 5608 5612 5617 5622 5627 5632 5638 5643 5650 5654 5660 5666 5673 5679
5651 5645 5639 5633 5628 5622 5616 5611 5606 5601 5598 5593 5589 5586 5584 5581 5580 5577 5575 5575 5576 5577 5579 5582 5584 5586 5589 5590 5595 5601 5604 5608 5613 5618 5623 5628 5634 5639 5645 5651 5656 5663 5668
5647 5641 5636 5629 5623 5618 5612 5607 5601 5596 5592 5588 5584 5580 5577 5576 5571 5564 5561 5564 5566 5568 5571 5573 5576 5578 5579 5579 5582 5585 5589 5596 5603 5608 5615 5620 5625 5631 5636 5641 5647 5651 5657
5644 5638 5632 5626 5620 5614 5608 5603 5597 5592 5588 5583 5579 5575 5572 5569 5562 5557 5553 5553 5557 5561 5563 5565 5568 5574 5573 5575 5576 5576 5579 5583 5588 5595 5604 5611 5617 5622 5626 5631 5637 5643 5649
5642 5635 5629 5622 5615 5609 5604 5598 5593 5588 5583 5579 5574 5570 5567 5564 5557 5552 5548 5548 5552 5554 5556 5557 5558 5561 5565 5566 5569 5573 5576 5580 5583 5586 5594 5601 5605 5611 5616 5620 5627 5633 5640
5640 5632 5626 5618 5611 5605 5600 5594 5589 5584 5579 5575 5572 5567 5563 5560 5554 5548 5542 5547 5550 5551 5551 5552 5552 5553 5553 5552 5555 5561 5567 5572 5575 5579 5584 5589 5592 5598 5604 5610 5616 5622 5629
5636 5629 5622 5615 5608 5602 5596 5590 5585 5580 5576 5572 5569 5565 5561 5558 5552 5545 5538 5544 5546 5546 5546 5546 5543 5543 5542 5541 5545 5551 5556 5563 5568 5573 5574 5578 5583 5589 5593 5600 5609 5615 5621
5633 5625 5618 5611 5605 5600 5594 5588 5582 5578 5574 5570 5566 5563 5559 5555 5550 5542 5536 5536 5538 5539 5540 5540 5540 5535 5532 5531 5533 5541 5547 5551 5557 5562 5567 5572 5578 5584 5589 5595 5602 5609 5614
5629 5622 5616 5610 5604 5599 5592 5586 5580 5575 5571 5568 5564 5562 5560 5555 5548 5543 5535 5530 5527 5530 5532 5533 5532 5526 5524 5523 5526 5531 5533 5537 5546 5553 5559 5565 5571 5577 5583 5590 5596 5601 5607
5626 5620 5614 5608 5602 5596 5590 5584 5579 5575 5571 5567 5564 5561 5558 5555 5549 5540 5533 5528 5525 5524 5527 5525 5521 5518 5517 5519 5520 5522 5524 5532 5540 5546 5553 5559 5566 5572 5576 5581 5586 5591 5596
5623 5617 5612 5606 5601 5596 5588 5584 5579 5574 5569 5565 5561 5557 5555 5551 5547 5541 5536 5532 5526 5524 5523 5522 5517 5515 5514 5516 5519 5522 5525 5531 5536 5540 5545 5552 5558 5563 5568 5574 5578 5583 5588
5621 5616 5610 5606 5600 5592 5587 5581 5576 5571 5565 5557 5556 5552 5549 5546 5540 5528 5524 5526 5524 5522 5518 5519 5521 5521 5521 5521 5523 5526 5528 5529 5531 5535 5538 5544 5549 5555 5561 5567 5571 5576 5581
5618 5614 5609 5604 5597 5591 5586 5582 5576 5568 5561 5553 5546 5540 5542 5536 5530 5525 5520 5517 5514 5511 5512 5519 5520 5521 5521 5522 5522 5524 5525 5527 5530 5532 5535 5538 5542 5547 5554 5559 5564 5569 5576
5614 5609 5605 5600 5595 5589 5583 5578 5575 5571 5563 5556 5549 5542 5536 5532 5527 5524 5520 5517 5515 5511 5516 5521 5521 5521 5521 5521 5521 5523 5524 5527 5528 5530 5533 5536 5539 5543 5548 5553 5559 5565 5570
5613 5608 5600 5596 5592 5587 5582 5577 5572 5569 5566 5563 5555 5546 5539 5534 5529 5525 5522 5519 5524 5521 5524 5525 5524 5523 5521 5520 5520 5522 5524 5525 5526 5528 5531 5534 5537 5541 5546 5550 5556 5561 5566
5611 5606 5600 5594 5590 5586 5581 5577 5572 5568 5564 5561 5559 5553 5543 5539 5533 5528 5524 5528 5531 5530 5529 5527 5526 5524 5523 5521 5521 5521 5523 5524 5525 5527 5530 5532 5535 5539 5544 5550 5554 5555 5561
5609 5600 5592 5590 5588 5584 5580 5575 5570 5566 5563 5560 5557 5553 5549 5545 5544 5539 5534 5534 5532 5531 5529 5528 5527 5525 5523 5522 5522 5522 5523 5524 5525 5527 5530 5531 5535 5538 5543 5547 5551 5555 5559
5608 5602 5590 5587 5586 5582 5577 5573 5568 5564 5561 5559 5556 5551 5539 5543 5544 5541 5539 5537 5534 5532 5530 5528 5528 5526 5526 5524 5523 5523 5523 5524 5526 5529 5531 5532 5535 5538 5542 5546 5550 5553 5557
5603 5599 5594 5589 5585 5579 5574 5571 5567 5564 5561 5558 5555 5552 5543 5543 5544 5542 5539 5537 5535 5533 5531 5529 5529 5528 5527 5526 5524 5524 5524 5525 5527 5529 5532 5534 5535 5538 5542 5546 5549 5552 5555
5599 5595 5590 5586 5581 5574 5570 5569 5566 5563 5560 5557 5554 5551 5547 5544 5543 5541 5539 5537 5534 5532 5530 5529 5529 5529 5529 5527 5526 5525 5526 5526 5527 5529 5531 5534 5536 5538 5541 5545 5548 5550 5553
5595 5590 5586 5582 5577 5574 5571 5567 5564 5561 5558 5555 5552 5549 5546 5543 5541 5539 5537 5536 5534 5532 5530 5529 5528 5529 5528 5527 5527 5527 5526 5526 5527 5529 5531 5534 5536 5538 5540 5543 5547 5551 5553
5591 5585 5581 5577 5574 5570 5567 5564 5561 5559 5555 5552 5549 5546 5544 5542 5540 5538 5536 5535 5533 5532 5531 5530 5529 5529 5529 5527 5527 5526 5522 5522 5523 5526 5530 5533 5536 5538 5540 5543 5545 5549 5552
5584 5580 5576 5573 5569 5566 5563 5560 5557 5554 5551 5549 5546 5544 5542 5540 5539 5537 5535 5533 5532 5532 5531 5531 5530 5529 5528 5528 5525 5522 5520 5521 5521 5522 5526 5532 5535 5538 5540 5542 5545 5547 5550